Back to catalog

CZ-6A DEB

AliveSSO
NORAD 54466·DEBRIS·🇨🇳 China

Launched Nov 11, 2022 from Taiyuan Satellite Launch Center

Loading…

Next Passes (next 24 hours)

TLE

FreshSource: Space-Track

Epoch: Sep 14, 2026, 10:54 UTC

1 54466U 22151GS  26257.45457128  .00000811  00000-0  41983-3 0  9992
2 54466  98.8252 268.6596 0030179  49.7886 310.5923 14.17480652198037

Track CZ-6A DEB in real time with AllMySat

Download on the App Store